Location: Latina
(41.4670°N, 12.8670°E)
Time: 12:57:56
(UTC+02:00)

ISS - Visible Passes

Search period start: 11 May 2021 00:00
Search period end: 21 May 2021 00:00
Orbit: 417 x 422 km, 51.6° (Epoch: 11 May)

Date Brightness Start Highest point End Pass type
(mag) Time Alt. Az. Time Alt. Az. Time Alt. Az.
11 May -0.8 02:04:21 16° N 02:04:21 16° N 02:06:10 10° NNE visible
11 May -0.7 03:39:27 10° NNW 03:41:40 16° N 03:43:52 10° NE visible
11 May -2.3 05:15:54 10° NW 05:19:08 42° NNE 05:22:22 10° ESE visible
12 May -0.5 01:18:16 13° NNE 01:18:16 13° NNE 01:18:48 10° NNE visible
12 May -0.6 02:51:58 10° NNW 02:53:59 15° N 02:56:00 10° NE visible
12 May -1.6 04:28:35 10° NW 04:31:36 29° NNE 04:34:37 10° E visible
13 May -0.6 02:05:02 12° NNW 02:06:17 15° N 02:08:16 10° NE visible
13 May -1.2 03:41:16 10° NW 03:44:01 23° NNE 03:46:47 10° ENE visible
13 May -3.8 05:17:45 10° WNW 05:21:08 75° SW 05:24:29 10° SE visible
14 May -0.6 01:18:39 15° N 01:18:39 15° N 01:20:41 10° NNE visible
14 May -0.9 02:53:56 10° NNW 02:56:24 18° NNE 02:58:51 10° ENE visible
14 May -3.3 04:30:20 10° NW 04:33:42 66° NNE 04:37:04 10° ESE visible
14 May -2.4 21:14:24 10° S 21:16:56 20° SE 21:19:29 10° E visible
14 May -2.9 22:50:14 10° WSW 22:53:31 50° NNW 22:55:36 20° NE visible
15 May -0.8 00:28:38 10° NW 00:30:56 17° NNW 00:33:14 10° NNE visible
15 May -0.7 02:06:32 10° NNW 02:08:44 16° N 02:10:56 10° NE visible
15 May -2.5 03:42:58 10° NW 03:46:13 42° NNE 03:49:27 10° ESE visible
15 May -3.7 22:02:42 10° WSW 22:06:03 81° NW 22:09:26 10° NE visible
15 May -1.0 23:40:43 10° WNW 23:43:17 20° NNW 23:45:52 10° NNE visible
16 May -0.6 01:19:01 10° NNW 01:21:03 15° N 01:23:05 10° NE visible
16 May -1.7 02:55:39 10° NW 02:58:40 29° NNE 03:01:41 10° E visible
16 May -3.4 04:32:21 10° WNW 04:35:34 42° SW 04:38:46 10° SSE visible
16 May -3.8 21:15:21 10° SW 21:18:39 59° SE 21:21:58 10° ENE visible
16 May -1.4 22:52:49 10° W 22:55:40 25° NNW 22:58:32 10° NE visible
17 May -0.5 00:31:23 10° NW 00:33:21 15° N 00:35:20 10° NE visible
17 May -1.3 02:08:20 10° NW 02:11:05 23° NNE 02:13:50 10° ENE visible
17 May -3.9 03:45:03 12° WNW 03:48:11 74° SW 03:51:33 10° SE visible
17 May -1.9 22:05:01 10° W 22:08:06 33° NNW 22:11:12 10° NE visible
17 May -0.6 23:43:36 10° NW 23:45:40 15° N 23:47:45 10° NNE visible
18 May -0.9 01:21:00 10° NNW 01:22:58 18° N 01:22:58 18° N visible
18 May -2.7 21:17:18 10° WSW 21:20:35 49° NNW 21:23:52 10° NE visible
18 May -0.7 22:55:42 10° NW 22:58:00 17° N 23:00:17 10° NNE visible
19 May -0.8 00:33:35 10° NNW 00:35:48 16° N 00:36:34 15° NNE visible
19 May -0.9 22:07:47 10° WNW 22:10:20 20° NNW 22:12:54 10° NNE visible
19 May -0.6 23:46:06 10° NNW 23:48:06 15° N 23:50:08 10° NE visible
20 May -0.7 01:22:42 10° NW 01:23:19 14° NNW 01:23:19 14° NNW visible
20 May -1.3 21:19:53 10° W 21:22:43 25° NNW 21:25:34 10° NE visible
20 May -0.7 22:58:27 10° NW 23:00:25 14° N 23:02:23 10° NE visible
